User: anonymous   Login
Location: Unspecified
(0.0000°N, 0.0000°E)
Time: 19:41:13
(UTC+00:00)
Language:

WGS F3 (USA 211) - Orbit

View from above orbital plane
View from above orbital plane
View from above satellite
View from above satellite

Ground track
Ground track

The orbit data is extracted from the following two-line orbital elements,

1 36108U 09068A   21137.46404778 -.00000161  00000-0  00000+0 0  9993
2 36108   0.0582 102.0803 0000590  83.9941 145.8404  0.99421989 41896
Epoch (UTC): 17 May 2021 11:08:13
Eccentricity: 0.0000590
inclination: 0.0582°
perigee height: 36023 km
apogee height: 36028 km
right ascension of ascending node: 102.0803°
argument of perigee: 83.9941°
revolutions per day: 0.99421989
mean anomaly at epoch: 145.8404°
orbit number at epoch: 4189

The dashed part of the orbit path shows where the satellite is in the earth's shadow,  

DLR